Chillicothe, MO

2:05 AM CST on December 15, 2019 (GMT -0600)
Chillicothe

Weather History for KCDJ - November, 2019

Change the Weather History Date:

Tuesday, November 12, 2019

  Actual Average (KIRK) Record (KIRK)
Temperature  
Mean Temperature 12 °F -  
Max Temperature 19 °F 47 °F 73 °F (1971)
Min Temperature 6 °F 30 °F 8 °F (1986)
Degree Days  
Heating Degree Days 52    
Moisture  
Dew Point 4 °F    
Average Humidity 66    
Maximum Humidity 84    
Minimum Humidity 47    
Precipitation  
Precipitation 0.00 in - - ()
Sea Level Pressure  
Sea Level Pressure 30.63 in    
Wind  
Wind Speed 4 mph (South)    
Max Wind Speed 10 mph    
Max Gust Speed -    
Averages and records for this station are not official NWS values.
T = Trace of Precipitation, MM = Missing Value Source: NWS Daily Summary

Daily Weather History Graph

Daily Weather History Graph

Search for Another Location

Airport or City:

Astronomy

Nov. 12, 2019 Rise Set
Actual Time 6:55 AM CST 5:01 PM CST
Civil Twilight 6:26 AM CST 5:29 PM CST
Nautical Twilight 5:54 AM CST 6:02 PM CST
Astronomical Twilight 5:22 AM CST 6:34 PM CST
Moon 5:28 PM CST (11/12) 6:47 AM CST (11/12)
Length of Visible Light 11h 03m
Length of Day
10h 05m
Full, 100% of the Moon is Illuminated
Nov 12
Full
Nov 19
Last Quarter
Nov 26
New
Dec 4
First Quarter
Dec 11
Full

Hourly Weather History & Observations

Time (CST) Temp. Windchill Dew Point Humidity Pressure Visibility Wind Dir Wind Speed Gust Speed Precip Events Conditions
12:52 AM 10.9 °F 1.4 °F 3.9 °F 73% 30.75 in - Variable 5.8 mph - N/A   Unknown
1:52 AM 10.0 °F 3.6 °F 3.9 °F 76% 30.75 in - Variable 3.5 mph - N/A   Unknown
2:52 AM 9.0 °F 0.6 °F 3.0 °F 77% 30.76 in - NNW 4.6 mph - N/A   Unknown
3:52 AM 8.1 °F 1.4 °F 3.0 °F 80% 30.75 in - NW 3.5 mph - N/A   Unknown
4:52 AM 7.0 °F - 3.0 °F 84% 30.74 in - Calm Calm - N/A   Unknown
5:52 AM 6.1 °F - 1.9 °F 83% 30.76 in - Calm Calm - N/A   Unknown
6:52 AM 6.1 °F - 1.9 °F 83% 30.76 in - Calm Calm - N/A   Unknown
7:52 AM 8.1 °F - 1.9 °F 76% 30.76 in - Calm Calm - N/A   Unknown
8:52 AM 12.0 °F - 3.0 °F 67% 30.75 in - Calm Calm - N/A   Unknown
9:52 AM 14.0 °F - 3.0 °F 62% 30.74 in - Calm Calm - N/A   Unknown
11:52 AM 17.1 °F 10.0 °F -0.0 °F 47% 30.70 in - Variable 4.6 mph - N/A   Unknown
12:52 PM 18.0 °F 11.1 °F 3.9 °F 54% 30.65 in - Variable 4.6 mph - N/A   Unknown
1:52 PM 19.0 °F 11.1 °F 1.9 °F 47% 30.60 in - Variable 5.8 mph - N/A   Unknown
2:52 PM 19.9 °F 12.1 °F 3.9 °F 50% 30.58 in - SSW 5.8 mph - N/A   Unknown
3:52 PM 19.9 °F 10.1 °F 5.0 °F 52% 30.54 in - South 8.1 mph - N/A   Unknown
4:52 PM 19.0 °F 11.1 °F 6.1 °F 57% 30.53 in - South 5.8 mph - N/A   Unknown
5:52 PM 18.0 °F 11.1 °F 6.1 °F 60% 30.51 in - South 4.6 mph - N/A   Unknown
6:52 PM 17.1 °F 7.6 °F 6.1 °F 62% 30.48 in - South 6.9 mph - N/A   Unknown
7:52 PM 17.1 °F 6.6 °F 7.0 °F 65% 30.43 in - SSE 8.1 mph - N/A   Unknown
8:52 PM 17.1 °F 7.6 °F 7.0 °F 65% 30.38 in - South 6.9 mph - N/A   Unknown
11:52 PM 19.0 °F 7.5 °F 10.0 °F 68% 30.32 in - South 10.4 mph - N/A   Unknown